This is the latest recevied weather packets stored in our database for station/object W7TJC. If no packets are shown the sender has not sent any weather packets the latest 10 day(s).
| Time | Temp. | Humidity | Pressure | Rain* | Wind** | Luminosity | Snow |
|---|---|---|---|---|---|---|---|
| 1777509315 | 17.22° C | 60% | 1023.4 hPa | 0 mm | - | 13 W/m² | - |
| 1777509013 | 17.22° C | 60% | 1023.2 hPa | 0 mm | - | 12 W/m² | - |
| 1777508710 | 17.22° C | 60% | 1023.3 hPa | 0 mm | - | 15 W/m² | - |
| 1777508406 | 17.22° C | 59% | 1023.1 hPa | 0 mm | - | 14 W/m² | - |
| 1777508103 | 17.78° C | 59% | 1023.3 hPa | 0 mm | - | 14 W/m² | - |
| 1777507800 | 17.78° C | 59% | 1023 hPa | 0 mm | - | 15 W/m² | - |
| 1777507497 | 17.78° C | 59% | 1023 hPa | 0 mm | - | 31 W/m² | - |
| 1777507193 | 17.78° C | 59% | 1023.2 hPa | 0 mm | - | 58 W/m² | - |
| 1777506892 | 17.78° C | 59% | 1023 hPa | 0 mm | - | 35 W/m² | - |
| 1777506588 | 17.78° C | 59% | 1023.4 hPa | 0 mm | - | 16 W/m² | - |
| 1777506284 | 17.78° C | 58% | 1023.3 hPa | 0 mm | - | 17 W/m² | - |
| 1777505980 | 17.78° C | 58% | 1023.6 hPa | 0 mm | - | 16 W/m² | - |
| 1777505676 | 17.78° C | 57% | 1023.4 hPa | 0 mm | - | 27 W/m² | - |
| 1777505373 | 17.78° C | 58% | 1023.3 hPa | 0 mm | - | 19 W/m² | - |
| 1777505070 | 17.78° C | 58% | 1023.5 hPa | 0 mm | - | 21 W/m² | - |
| 1777504767 | 18.33° C | 56% | 1023.8 hPa | 0 mm | - | 46 W/m² | - |
| 1777504465 | 18.33° C | 56% | 1023.6 hPa | 0 mm | - | 62 W/m² | - |
| 1777504160 | 18.33° C | 56% | 1023.8 hPa | 0 mm | - | 19 W/m² | - |
| 1777503855 | 17.78° C | 57% | 1023.8 hPa | 0 mm | - | 19 W/m² | - |
| 1777503552 | 18.33° C | 56% | 1023.8 hPa | 0 mm | - | 19 W/m² | - |
| 1777503249 | 18.33° C | 55% | 1023.9 hPa | 0 mm | - | 20 W/m² | - |
| 1777502945 | 18.33° C | 58% | 1023.8 hPa | 0 mm | - | 23 W/m² | - |
| 1777502642 | 18.33° C | 57% | 1024 hPa | 0 mm | - | 21 W/m² | - |
| 1777502339 | 18.33° C | 56% | 1024 hPa | 0 mm | - | 22 W/m² | - |
| 1777502035 | 18.33° C | 55% | 1024 hPa | 0 mm | - | 21 W/m² | - |
* Rain latest hour (hover to see other rain measurements)
** Current wind speed in m/s (hover to see current wind gust speed)